Weather in Pishchalye

Russia / Kirov Oblast     58°14′09″N   48°42′26″E
temp.,
°C
wind,
m/s
gust,
m/s
humid.,
%
clouds,
%
prec.,
mm/h
press.,
hPa
HPBL,
m
8 may, sat
sat800:00+6wsw229571 0.1 101562
03:00+5sw2497100 0.1 1017102
06:00+7wnw0185100 0.0 1018118
09:00+12ene12550 0.0 1018782
12:00+15ese23366 0.0 10171706
15:00+16se45386 0.0 10151868
18:00+13se476290 0.0 1014750
21:00+9ese3108794 0.0 1013240
9 may, sun
sun900:00+11sse41285100 0.0 1012444
03:00+11sse41379100 0.0 1011494
06:00+11sse41277100 0.0 1010516
09:00+13s51271100 0.0 1010811
12:00+14sse51369100 0.2 1011862
15:00+16s51167100 0.3 10111210
18:00+15s51172100 0.0 10121043
21:00+12s31291100 0.9 1013746
10 may, mon
mon1000:00+10w3795100 2.1 1015440
03:00+9wsw2594100 2.8 1017383
06:00+7wnw3792100 0.2 1021505
09:00+7nw4689100 0.3 1024885
12:00+11nnw465928 0.1 10251381
15:00+13nnw46395 0.1 10261916
18:00+12nnw24485 0.0 1028266
21:00+7nw11654 0.0 102910
11 may, tue
tue1100:00+6nnw007217 0.0 103010
03:00+5wsw117526 0.0 103110
06:00+8sw116397 0.0 1032106
09:00+12sw2351100 0.0 1032403
12:00+13sw344998 0.0 1032605
15:00+16w3448100 0.0 10311049
18:00+16wsw126435 0.0 103074
21:00+11ssw3580100 0.0 103075
12 may, wed
wed1200:00+10sw268963 0.0 1031100
03:00+9sw269432 0.0 1031114
06:00+12w258158 0.0 1031186
09:00+18wnw356266 0.0 1029691
12:00+21wnw354791 0.0 10291278
15:00+22wnw4544100 0.0 10281531
18:00+19wnw236292 0.0 102876
21:00+15nw227661 0.0 102811